ISIS 1

Last updated on Wed Jul 02 2025 00:02:13 GMT+0000 (Coordinated Universal Time)

1 03669U 69009A 25182.51015525 .00000065 00000+0 46172-4 0 9994 2 03669 88.4513 182.6859 1706972 236.2052 106.4830 11.30275949320150
UTC large
Height (km)
Speed (km/s)
/
Latitude / Longitude
Inclination (degrees)
Orbital Period (minutes)
Azimuth
Elevation
Range (km)
Doppler Factor

Next 0 passes for location: London (51.5072 / 0.1276)

Sorry there are no passes over London.